Location: Holcomb Observatory
(44.4922°N, 73.1654°W)
Time: 19:54:45
(UTC-04:00)

Daily predictions for brighter satellites

Satellite Brightness Start Highest point End
(mag) Time Altitude Azimuth Time Altitude Azimuth Time Altitude Azimuth
SL-19 R/B 4.4 18:57:06 10° SSE 19:02:42 74° ENE 19:08:44 10° NNW
Cosmos 2297 3.8 18:58:05 10° NNW 19:03:47 86° WSW 19:09:26 10° SSE
Cosmos 2233 Rocket 4.3 19:00:49 10° S 19:07:08 80° W 19:13:30 10° N
Cosmos 1805 4.4 19:04:05 10° SE 19:07:15 24° E 19:10:26 10° NE
Cosmos 1953 3.3 19:04:55 10° SE 19:08:11 25° E 19:11:28 10° NE
ALOS 3.6 19:06:16 10° ESE 19:09:46 21° ENE 19:13:17 10° NNE
Meteor 1-22 Rocket 4.0 19:06:21 10° S 19:11:39 72° E 19:16:56 10° NNE
USA 215 3.9 19:06:08 10° ENE 19:11:58 34° SE 19:17:46 10° S
Cosmos 1943 Rocket 4.1 19:11:08 10° NNE 19:13:06 12° NE 19:15:04 10° ENE
SKYMED 2 3.7 19:08:54 10° NNE 19:13:17 84° WNW 19:17:36 10° SSW
Cosmos 2369 Rocket 3.5 19:09:10 10° N 19:13:29 22° NE 19:17:48 10° E
MSX 4.4 19:08:02 10° S 19:13:43 63° WSW 19:19:27 10° NNW
Cosmos 1707 4.2 19:11:52 10° NNW 19:15:33 43° W 19:19:12 10° SSW
Cosmos 1408 Rocket 3.7 19:11:49 10° N 19:16:04 49° ENE 19:20:15 10° SSE
HJ-1C 4.1 19:13:31 10° SE 19:16:34 32° ENE 19:19:37 10° N
Meteor 1-24 Rocket 3.8 19:11:15 10° NNW 19:16:56 82° W 19:22:21 10° S
IDEFIX/ARIANE 42P 4.4 19:14:40 10° SSW 19:19:29 36° W 19:24:20 10° NNW
Cosmos 1603 4.3 19:16:37 10° SSE 19:21:44 35° ESE 19:26:53 10° NE
NOAA 12 4.1 19:21:54 10° SSE 19:27:09 82° ENE 19:32:28 10° NNW
ATLAS 3B R/B 4.4 19:20:21 10° WSW 19:27:12 35° NW 19:33:49 10° NNE
Aureole 2 Rocket 3.4 19:26:10 10° SSW 19:30:32 67° WNW 19:34:47 10° NNE
Cosmos 1470 4.2 19:28:06 10° SE 19:30:44 18° E 19:33:22 10° NE
ATLAS CENTAUR R/B 3.7 19:28:20 10° SSW 19:33:28 72° SE 19:50:12 10° NE
SeaSat 1 4.3 19:35:13 12° ESE 19:35:13 12° ESE 19:36:00 10° SE
Cosmos 724 4.5 19:29:56 10° S 19:35:37 51° ESE 19:41:30 10° NE
Cosmos 2333 Rocket 4.2 19:31:47 10° WSW 19:36:53 31° NW 19:41:59 10° N
In-Cosmos 22 4.2 19:32:11 10° N 19:37:59 80° ENE 19:43:45 10° SSE
SJ-6B 3.3 19:34:16 10° S 19:38:14 67° WSW 19:42:19 10° NNW
Meteor 1-29 3.5 19:36:15 10° NNE 19:39:33 37° E 19:42:48 10° SSE
Resurs 1-3 3.7 19:35:46 10° SSE 19:40:02 53° ENE 19:44:20 10° N
TELKOM 3 3.3 19:38:27 10° WNW 19:41:21 60° NNE 19:42:22 28° E
Helios 1A 3.0 19:37:17 10° SSE 19:41:26 63° ENE 19:45:37 10° N
FREGAT/IRIS 3.0 19:38:36 10° S 19:41:40 69° WSW 19:44:46 10° NNW
Resurs 01 Rocket 1.6 19:38:46 10° SSE 19:43:12 74° ENE 19:47:39 10° N
CZ-4B DEB 3.6 19:41:22 18° ESE 19:43:13 31° ENE 19:46:10 10° N
Cosmos 1674 3.5 19:40:33 10° N 19:44:04 32° ENE 19:46:24 17° SE
Cosmos 1743 Rocket 3.8 19:40:54 10° N 19:45:14 48° ENE 19:49:30 10° SSE
NOSS 3-2 (A) 3.7 19:41:23 10° SW 19:47:30 75° NW 19:54:15 10° NE
FengYun 1-2 T 4.2 19:43:31 10° SSE 19:48:58 68° ENE 19:54:25 10° N
Cosmos 1452 Rocket 3.7 19:45:04 10° NNW 19:50:21 74° WSW 19:55:34 10° SSE
Cosmos 1758 3.3 19:47:02 10° S 19:51:07 80° E 19:55:14 10° N
ATLAS 5 CENTAUR R/B 1.9 19:52:17 10° SW 19:57:06 84° NW 20:02:23 10° NE
Abrixas 3.3 19:54:51 10° SSW 19:57:34 31° SSE 19:57:41 31° SE
Cosmos 2237 Rocket 4.4 19:53:00 10° WSW 19:57:42 26° NW 20:02:25 10° N
Nadezhda 4 Rocket 3.9 19:52:54 10° N 19:59:12 71° E 20:05:23 10° SSE
Cosmos 1346 2.9 19:57:32 10° N 20:00:32 86° E 20:02:38 18° S
Meteor 2-12 Rocket 4.4 19:59:08 10° S 20:05:17 87° E 20:11:29 10° N
Meteor 1-21 Rocket 4.3 20:01:18 10° NNW 20:06:53 80° W 20:12:24 10° S
Cosmos 1092 Rocket 4.0 20:00:59 10° N 20:07:08 60° ENE 20:13:12 10° SSE
GP-B 3.7 20:03:25 10° NNE 20:07:31 34° E 20:08:19 32° ESE
Cosmos 468 4.4 20:04:05 10° SSW 20:09:20 87° ESE 20:14:36 10° NNE
ASTEX 1 3.3 20:05:50 10° NNE 20:10:42 60° E 20:15:32 10° S
Cosmos 1420 Rocket 4.0 20:06:11 10° NNW 20:11:31 86° WSW 20:16:34 11° SSE
Helios 1B rocket 2.9 20:12:44 10° N 20:16:49 64° WNW 20:20:53 10° SSW
Cosmos 1328 4.3 20:14:00 10° N 20:17:29 38° ENE 20:17:29 38° ENE
SL-16 R/B 3.8 20:13:05 10° WSW 20:18:19 37° NW 20:23:36 10° NNE
CENTAUR R/B 2.7 20:13:17 10° S 20:19:00 45° ESE 20:25:23 10° NE
Cosmos 1544 3.5 20:16:39 10° SSW 20:20:22 66° W 20:24:07 10° N
Cosmos 2026 Rocket 4.3 20:14:38 10° N 20:20:26 43° ENE 20:22:37 32° ESE
Cosmos 1634 Rocket 4.0 20:18:17 10° SSE 20:24:21 56° E 20:30:24 10° NNE
CZ-2D R/B 3.2 20:24:44 30° S 20:26:35 85° WSW 20:30:30 10° NNW
NOSS 3-2 (C) 4.2 20:20:36 10° WSW 20:26:38 55° NW 20:33:18 10° NNE
H-2A R/B 4.2 20:28:54 15° NE 20:28:54 15° NE 20:30:21 10° NNE
ERBS 4.1 20:25:53 10° NNW 20:28:32 23° NNE 20:28:32 23° NNE
Cosmos 1048 Rocket 3.9 20:26:54 10° SSW 20:32:12 89° WNW 20:37:29 10° NNE
Cosmos 1269 Rocket 4.1 20:27:28 10° SSW 20:32:45 77° WNW 20:38:04 10° NNE
FENGYUN 3A 3.9 20:29:33 10° S 20:34:54 68° WSW 20:40:18 10° NNW
Cosmos-2242 4.5 20:31:46 10° SW 20:35:51 39° WNW 20:40:00 10° N
Envisat 3.5 20:39:20 41° ENE 20:39:20 41° ENE 20:43:53 10° N
H-2A R/B 3.3 20:39:08 31° SSW 20:40:46 58° W 20:44:36 10° NNW
Cosmos 2195 Rocket 4.4 20:36:07 10° N 20:42:27 73° E 20:45:27 33° SSE
Cosmos 2151 2.8 20:38:37 10° N 20:42:41 74° NE 20:42:41 74° NE
Gbstr 26 Del rocket 3.6 20:39:02 10° SW 20:42:56 48° SSE 20:42:56 48° SSE
Cosmos 2058 3.8 20:41:21 10° N 20:44:01 35° NNE 20:44:01 35° NNE
ISS -1.2 20:42:55 10° SW 20:44:06 20° SW 20:44:06 20° SW
ALOS 3.3 20:42:26 10° S 20:46:55 45° W 20:51:25 10° NNW
BREEZE-M DEB (TANK) 3.0 20:39:53 10° W 20:51:13 86° NNE 20:52:03 62° E
USA 215 3.3 20:49:37 14° NE 20:55:20 77° NW 21:01:51 10° WSW
Cosmos 1842 Rocket 4.4 20:51:20 10° SSW 20:55:32 49° WNW 20:59:47 10° N
Cosmos 158 Rocket 3.7 20:52:26 10° SSW 20:57:19 88° WNW 21:02:14 10° NNE
Cosmos 2369 Rocket 2.3 20:52:26 10° NNW 20:58:05 71° WSW 20:59:45 46° S
Cosmos 1943 Rocket 2.3 20:52:41 10° NNW 20:58:06 54° NE 20:58:06 54° NE
Cosmos 1943 3.1 20:54:41 10° SSW 21:00:20 88° WNW 21:06:00 10° NNE
Cosmos 2263 4.2 20:59:24 10° NNW 21:05:14 85° WSW 21:05:59 68° S
Cosmos 1470 4.4 21:03:02 10° SW 21:06:35 33° WNW 21:10:09 10° N
SeaSat 1 4.3 21:06:45 10° NNE 21:15:13 20° SSW 21:16:40 10° SSW
SL-8 R/B 4.2 21:08:32 10° WSW 21:12:17 55° WSW 21:12:17 55° WSW
ERS-1 Rocket 3.0 21:15:21 73° NNW 21:15:21 73° NNW 21:19:56 10° NNW
Cosmos 1110 Rocket 4.3 21:17:13 10° NNW 21:22:20 66° W 21:22:20 66° W
Meteor 2-1 Rocket 4.3 21:24:04 71° N 21:24:04 71° N 21:29:17 10° N
ATLAS 5 CENTAUR R/B 4.3 21:38:58 10° WNW 21:42:40 20° NNW 21:46:37 10° NNE
Cosmos 2279 Rocket 4.4 21:46:26 57° WSW 21:47:03 60° WNW 21:53:12 10° N
UNK 4.3 21:40:13 10° WNW 21:54:39 76° NW 21:54:39 76° NW
CENTAUR R/B 3.6 22:03:46 10° WSW 22:09:42 43° NW 22:16:25 10° NNE
H-2A R/B 4.5 22:32:03 16° N 22:32:03 16° N 22:33:05 10° N
USA 215 4.4 22:37:01 35° N 22:37:48 36° NNW 22:43:38 10° W
Cosmos 1943 Rocket 4.4 22:37:13 10° NW 22:39:38 19° WNW 22:39:38 19° WNW
